Pueblo, CO

1:41 AM MST on December 14, 2017 (GMT -0700)
Pueblo Memorial

Weather History for KPUB - September, 2013

Change the Weather History Date:

Sunday, September 15, 2013

  Actual Average Record
Temperature  
Mean Temperature 66 °F 65 °F  
Max Temperature 75 °F 82 °F 99 °F (1990)
Min Temperature 56 °F 48 °F 32 °F (1993)
Degree Days  
Heating Degree Days 0 3  
Month to date heating degree days 0 21  
Since 1 July heating degree days 0 26  
Cooling Degree Days 1 3  
Month to date cooling degree days 133 63  
Year to date cooling degree days 1193 874  
Growing Degree Days 16 (Base 50)    
Moisture  
Dew Point 55 °F    
Average Humidity 70    
Maximum Humidity 93    
Minimum Humidity 46    
Precipitation  
Precipitation 0.75 in 0.02 in 0.87 in (1964)
Month to date precipitation 1.00 0.45  
Year to date precipitation 8.80 10.68  
Snow  
Snow 0.00 in 0.00 in 0.00 in (2002)
Month to date snowfall 0.0 0.1  
Since 1 July snowfall T 0.1  
Since 1 September snowfall 0.0 0.1  
Snow Depth 0.00 in    
Sea Level Pressure  
Sea Level Pressure 30.08 in    
Wind  
Wind Speed 8 mph (ENE)    
Max Wind Speed 23 mph    
Max Gust Speed 26 mph    
Visibility 8 miles    
Events Rain , Thunderstorm    
T = Trace of Precipitation, MM = Missing Value Source: NWS Daily Summary

Daily Weather History Graph

Daily Weather History Graph

Search for Another Location

Airport or City:

Trip Planner

Search our weather history database for the weather conditions in past years. The results will help you decide how hot, cold, wet, or windy it might be!

Date:

Astronomy

Sep. 15, 2013 Rise Set
Actual Time 6:39 AM MDT 7:05 PM MDT
Civil Twilight 6:13 AM MDT 7:32 PM MDT
Nautical Twilight 5:42 AM MDT 8:03 PM MDT
Astronomical Twilight 5:10 AM MDT 8:34 PM MDT
Moon 4:32 PM MDT (9/15) 2:23 AM MDT (9/15)
Length of Visible Light 13h 18m
Length of Day
12h 25m
Waxing Gibbous, 82% of the Moon is Illuminated
Sep 15
Waxing Gibbous
Sep 19
Full
Sep 26
Last Quarter
Oct 4
New
Oct 11
First Quarter

Hourly Weather History & Observations

Time (MDT) Temp. Dew Point Humidity Pressure Visibility Wind Dir Wind Speed Gust Speed Precip Events Conditions
12:53 AM 62.1 °F 52.0 °F 70% 29.83 in 10.0 mi WNW 10.4 mph - N/A   Clear
1:53 AM 62.1 °F 51.1 °F 67% 29.84 in 10.0 mi Calm Calm - N/A   Clear
2:53 AM 64.9 °F 51.1 °F 61% 29.85 in 10.0 mi NNW 13.8 mph 18.4 mph N/A   Mostly Cloudy
3:53 AM 63.0 °F 52.0 °F 67% 29.88 in 10.0 mi West 3.5 mph - N/A   Mostly Cloudy
4:53 AM 64.0 °F 53.1 °F 67% 29.90 in 10.0 mi Calm Calm - N/A   Overcast
5:53 AM 63.0 °F 53.1 °F 70% 29.94 in 10.0 mi Calm Calm - N/A   Overcast
6:53 AM 62.1 °F 53.1 °F 72% 29.96 in 10.0 mi Calm Calm - N/A   Scattered Clouds
7:53 AM 62.1 °F 54.0 °F 75% 30.00 in 10.0 mi Calm Calm - N/A   Overcast
8:53 AM 64.0 °F 55.0 °F 73% 30.01 in 10.0 mi SE 3.5 mph - N/A   Overcast
9:53 AM 68.0 °F 54.0 °F 61% 30.02 in 10.0 mi ENE 5.8 mph - N/A   Overcast
10:53 AM 71.1 °F 54.0 °F 55% 30.02 in 10.0 mi NNE 8.1 mph - N/A   Scattered Clouds
11:53 AM 70.0 °F 54.0 °F 57% 30.04 in 10.0 mi East 9.2 mph - N/A   Mostly Cloudy
12:53 PM 66.0 °F 57.0 °F 73% 30.05 in 10.0 mi South 10.4 mph - N/A   Mostly Cloudy
1:53 PM 70.0 °F 55.9 °F 61% 30.03 in 10.0 mi South 4.6 mph - 0.00 in   Mostly Cloudy
2:53 PM 75.0 °F 53.1 °F 46% 29.99 in 10.0 mi SE 12.7 mph 21.9 mph N/A   Mostly Cloudy
3:53 PM 72.0 °F 53.1 °F 51% 30.01 in 10.0 mi SE 10.4 mph - N/A   Overcast
4:53 PM 63.0 °F 57.0 °F 81% 30.05 in 10.0 mi North 18.4 mph - 0.00 in Rain Light Rain
5:17 PM 60.8 °F 57.2 °F 88% 30.19 in 2.0 mi North 19.6 mph 26.5 mph 0.05 in Rain , Thunderstorm Heavy Rain
5:32 PM 60.8 °F 57.2 °F 88% 30.20 in 6.0 mi North 17.3 mph - 0.11 in Rain Light Rain
5:53 PM 61.0 °F 57.9 °F 90% 30.08 in 4.0 mi North 13.8 mph - 0.14 in Rain , Thunderstorm Thunderstorms and Rain
6:04 PM 60.8 °F 57.2 °F 88% 30.20 in 2.0 mi North 16.1 mph - 0.04 in Rain , Thunderstorm Heavy Thunderstorms and Rain
6:19 PM 62.6 °F 57.2 °F 82% 30.20 in 5.0 mi North 15.0 mph - 0.08 in Rain , Thunderstorm Light Rain
6:45 PM 60.8 °F 57.2 °F 88% 30.22 in 5.0 mi ENE 18.4 mph - 0.10 in Rain Light Rain
6:53 PM 60.1 °F 57.0 °F 90% 30.11 in 1.8 mi NE 18.4 mph - 0.15 in Rain Heavy Rain
7:18 PM 59.0 °F 57.2 °F 94% 30.23 in 2.5 mi NE 12.7 mph - 0.23 in Rain Heavy Rain
7:53 PM 59.0 °F 57.9 °F 96% 30.12 in 3.0 mi East 13.8 mph - 0.42 in Rain Rain
8:48 PM 59.0 °F 57.2 °F 94% 30.27 in 10.0 mi East 13.8 mph - 0.02 in   Overcast
8:53 PM 59.0 °F 57.0 °F 93% 30.14 in 10.0 mi East 11.5 mph - 0.02 in   Overcast
9:45 PM 59.0 °F 57.2 °F 94% 30.28 in 10.0 mi East 8.1 mph - 0.01 in   Overcast
9:53 PM 57.9 °F 57.0 °F 97% 30.15 in 10.0 mi ESE 8.1 mph - 0.01 in Rain Light Rain
10:08 PM 57.2 °F 55.4 °F 94% 30.28 in 10.0 mi East 9.2 mph - 0.00 in Rain Light Rain
10:26 PM 57.2 °F 55.4 °F 94% 30.28 in 10.0 mi East 8.1 mph - 0.01 in Rain Light Rain
10:53 PM 57.9 °F 55.9 °F 93% 30.15 in 10.0 mi East 9.2 mph - 0.01 in   Overcast
11:53 PM 57.0 °F 55.0 °F 93% 30.16 in 10.0 mi East 11.5 mph - N/A   Overcast